GW5901 Weather Reports


time (UTC)temp
F
wind
direction
speed
knots
gust
knots
rain 1hr
in
rain 24hr
in
rain mn
in
humidity
%
barometer
mb
20260510105015 63 44 0.0 0.0 0.00 0.00 0.00 83 1016.6
20260510104512 63 44 0.0 0.0 0.00 0.00 0.00 84 1016.6
20260510104009 63 44 0.0 0.0 0.00 0.00 0.00 83 1016.6
20260510103506 63 36 0.0 0.0 0.00 0.00 0.00 84 1016.3
20260510103002 63 37 0.0 0.0 0.00 0.00 0.00 84 1016.1
20260510102458 63 36 0.0 0.0 0.00 0.00 0.00 84 1016.2
20260510101954 63 36 0.0 0.0 0.00 0.00 0.00 84 1016.2
20260510101452 64 37 0.0 0.0 0.00 0.00 0.00 84 1015.9
20260510100950 64 43 0.0 0.0 0.00 0.00 0.00 84 1015.7
20260510100446 64 38 0.0 0.0 0.00 0.00 0.00 84 1016.0
20260510095943 64 27 0.0 0.9 0.00 0.00 0.00 84 1015.7
20260510095438 65 38 0.0 0.0 0.00 0.00 0.00 83 1015.4
20260510094937 65 38 0.0 0.0 0.00 0.00 0.00 83 1015.5
20260510094432 65 38 0.0 0.0 0.00 0.00 0.00 83 1015.2
20260510093928 65 39 0.0 0.0 0.00 0.00 0.00 83 1015.3
20260510093424 66 36 0.9 0.9 0.00 0.00 0.00 83 1014.9
20260510092921 66 65 0.0 0.0 0.00 0.00 0.00 82 1014.9
20260510092419 67 65 0.0 0.0 0.00 0.00 0.00 82 1015.1
20260510091918 66 65 0.0 0.0 0.00 0.00 0.00 82 1015.2
20260510091415 66 65 0.0 0.0 0.00 0.00 0.00 82 1015.3
20260510090912 66 65 0.0 0.0 0.00 0.00 0.00 82 1015.2
20260510090409 66 65 0.0 0.0 0.00 0.00 0.00 81 1015.3
20260510085905 66 65 0.0 0.0 0.00 0.00 0.00 80 1015.4
20260510085359 66 65 0.0 0.0 0.00 0.00 0.00 80 1015.2
20260510084855 66 65 0.0 0.0 0.00 0.00 0.00 80 1015.1
20260510084353 66 65 0.0 0.0 0.00 0.00 0.00 80 1015.1
20260510083849 66 65 0.0 0.0 0.00 0.00 0.00 79 1015.0
20260510083346 66 65 0.0 0.0 0.00 0.00 0.00 79 1015.1
20260510082841 66 65 0.0 0.0 0.00 0.00 0.00 79 1015.0
20260510082339 66 65 0.0 0.0 0.00 0.00 0.00 78 1015.0
20260510081837 65 65 0.0 0.0 0.00 0.00 0.00 78 1015.1
20260510081334 65 65 0.0 0.0 0.00 0.00 0.00 78 1015.2
20260510080830 65 65 0.0 0.0 0.00 0.00 0.00 77 1015.1
20260510080325 65 65 0.0 0.0 0.00 0.00 0.00 77 1014.9
20260510075822 65 65 0.0 0.0 0.00 0.00 0.00 76 1014.9
20260510075320 65 65 0.0 0.0 0.00 0.00 0.00 76 1014.8
20260510074816 65 65 0.0 0.0 0.00 0.00 0.00 76 1015.0
20260510074314 65 65 0.0 0.0 0.00 0.00 0.00 76 1015.1
20260510073809 65 65 0.0 0.0 0.00 0.00 0.00 77 1015.2
20260510073305 65 65 0.0 0.0 0.00 0.00 0.00 75 1014.9
20260510072801 65 65 0.0 0.0 0.00 0.00 0.00 74 1014.9
20260510072258 65 65 0.0 0.0 0.00 0.00 0.00 75 1015.0
20260510071754 65 65 0.0 0.0 0.00 0.00 0.00 74 1014.9
20260510071251 65 65 0.0 0.0 0.00 0.00 0.00 74 1014.9
20260510070750 65 65 0.0 0.0 0.00 0.00 0.00 74 1014.8
20260510070247 65 65 0.0 0.0 0.00 0.00 0.00 74 1015.1
20260510065746 66 65 0.0 0.0 0.00 0.00 0.00 72 1014.9
20260510065243 66 65 0.0 0.0 0.00 0.00 0.00 72 1015.0
20260510064740 66 65 0.0 0.0 0.00 0.00 0.00 71 1015.0
20260510064238 66 65 0.0 0.0 0.00 0.00 0.00 71 1015.0
20260510063734 66 65 0.0 0.0 0.00 0.00 0.00 70 1015.4
20260510063230 66 65 0.0 0.0 0.00 0.00 0.00 72 1015.2
20260510062727 66 65 0.0 0.0 0.00 0.00 0.00 69 1015.3
20260510062223 66 65 0.0 0.0 0.00 0.00 0.00 68 1015.3
20260510061718 66 65 0.0 0.0 0.00 0.00 0.00 67 1015.3
20260510061216 66 65 0.0 0.0 0.00 0.00 0.00 67 1015.2
20260510060712 66 65 0.0 0.0 0.00 0.00 0.00 67 1015.0
20260510060208 66 65 0.0 0.0 0.00 0.00 0.00 66 1015.1
20260510055705 65 64 0.0 0.0 0.00 0.00 0.00 67 1015.2
20260510055203 65 64 0.0 0.0 0.00 0.00 0.00 66 1015.1
20260510054658 64 64 0.0 0.0 0.00 0.00 0.00 67 1015.2
20260510054154 64 64 0.0 0.0 0.00 0.00 0.00 66 1015.3
20260510053654 64 64 0.0 0.0 0.00 0.00 0.00 65 1015.4
20260510053151 64 64 0.0 0.0 0.00 0.00 0.00 66 1015.2
20260510052646 63 64 0.0 0.0 0.00 0.00 0.00 66 1015.3
20260510052143 63 64 0.0 0.0 0.00 0.00 0.00 67 1015.3
20260510051638 62 64 0.0 0.0 0.00 0.00 0.00 68 1015.3
20260510051135 63 64 0.0 0.0 0.00 0.00 0.00 66 1015.3
20260510050632 63 64 0.0 0.0 0.00 0.00 0.00 66 1015.3
20260510050130 64 64 0.0 0.0 0.00 0.00 0.00 65 1015.2
20260510045626 64 64 0.0 0.0 0.00 0.00 0.00 61 1015.2
20260510045123 64 64 0.0 0.0 0.00 0.00 0.00 62 1015.1
20260510044619 64 64 0.0 0.0 0.00 0.00 0.00 63 1014.8
20260510044117 64 64 0.0 0.0 0.00 0.00 0.00 62 1015.1
20260510043612 64 64 0.0 0.0 0.00 0.00 0.00 59 1015.0
20260510043108 64 64 0.0 0.0 0.00 0.00 0.00 61 1015.0
20260510042607 63 64 0.0 0.0 0.00 0.00 0.00 61 1014.9
20260510042102 64 64 0.0 0.0 0.00 0.00 0.00 63 1014.8
20260510041600 64 64 0.0 0.0 0.00 0.00 0.00 63 1014.6
20260510041057 64 64 0.0 0.0 0.00 0.00 0.00 62 1014.7
20260510040554 64 64 0.0 0.0 0.00 0.00 0.00 63 1014.7
20260510040049 65 64 0.0 0.0 0.00 0.00 0.00 61 1014.6
20260510035546 65 64 0.0 0.0 0.00 0.00 0.00 62 1014.7
20260510035045 65 64 0.0 0.0 0.00 0.00 0.00 62 1014.5
20260510034544 66 64 0.0 0.0 0.00 0.00 0.00 62 1014.4
20260510034041 66 64 0.0 0.0 0.00 0.00 0.00 64 1014.3
20260510033536 66 64 0.0 0.0 0.00 0.00 0.00 57 1014.4
20260510033035 65 64 0.0 0.0 0.00 0.00 0.00 62 1014.2
20260510032531 65 64 0.0 0.0 0.00 0.00 0.00 62 1014.0
20260510032026 66 64 0.0 0.0 0.00 0.00 0.00 61 1014.4
20260510031521 66 64 0.0 0.0 0.00 0.00 0.00 59 1014.1
20260510031018 66 64 0.0 0.0 0.00 0.00 0.00 58 1014.1
20260510030513 66 64 0.0 0.0 0.00 0.00 0.00 62 1014.2
20260510030011 66 64 0.0 0.0 0.00 0.00 0.00 60 1014.0
20260510025508 66 64 0.0 0.0 0.00 0.00 0.00 60 1014.0
20260510025006 66 64 0.0 0.0 0.00 0.00 0.00 62 1013.6
20260510024502 66 64 0.0 0.0 0.00 0.00 0.00 63 1013.5
20260510023958 66 64 0.0 0.0 0.00 0.00 0.00 62 1013.3
20260510023454 66 64 0.0 0.0 0.00 0.00 0.00 60 1013.2
20260510022951 66 64 0.0 0.0 0.00 0.00 0.00 60 1013.1
20260510022450 66 64 0.0 0.0 0.00 0.00 0.00 58 1013.0
20260510021949 67 64 0.0 0.0 0.00 0.00 0.00 58 1013.3
20260510021448 67 64 0.0 0.0 0.00 0.00 0.00 59 1013.1
20260510020945 67 64 0.0 0.0 0.00 0.00 0.00 57 1012.9
20260510020444 68 64 0.0 0.0 0.00 0.00 0.00 59 1012.9
20260510015940 68 64 0.0 0.0 0.00 0.00 0.00 56 1012.8
20260510015436 68 64 0.0 0.0 0.00 0.00 0.00 59 1012.5
20260510014931 68 64 0.0 0.0 0.00 0.00 0.00 56 1012.7
20260510014429 69 64 0.0 0.0 0.00 0.00 0.00 54 1012.5
20260510013926 69 64 0.0 0.0 0.00 0.00 0.00 52 1012.6
20260510013420 70 64 0.0 0.0 0.00 0.00 0.00 53 1012.6
20260510012916 70 64 0.0 0.0 0.00 0.00 0.00 51 1012.3
20260510012411 71 64 0.0 0.0 0.00 0.00 0.00 49 1012.3
20260510011906 71 64 0.0 0.0 0.00 0.00 0.00 50 1012.3
20260510011401 71 64 0.0 0.0 0.00 0.00 0.00 48 1012.3
20260510010858 71 64 0.0 0.0 0.00 0.00 0.00 50 1012.1
20260510010355 71 64 0.0 0.0 0.00 0.00 0.00 49 1012.2
20260510005852 72 64 0.0 0.0 0.00 0.00 0.00 50 1012.1
20260510005348 72 63 0.0 0.0 0.00 0.00 0.00 50 1012.0
20260510004846 72 63 0.0 0.0 0.00 0.00 0.00 50 1012.1
20260510004343 72 63 0.0 0.0 0.00 0.00 0.00 52 1012.0
20260510003841 73 63 0.0 0.0 0.00 0.00 0.00 51 1011.9
20260510003337 73 63 0.0 0.0 0.00 0.00 0.00 51 1011.9
20260510002836 73 63 0.0 0.0 0.00 0.00 0.00 52 1012.1
20260510002333 74 63 0.0 0.0 0.00 0.00 0.00 53 1012.1
20260510001830 74 63 0.0 0.0 0.00 0.00 0.00 50 1011.9
20260510001328 74 63 0.0 0.0 0.00 0.00 0.00 54 1012.2
20260510000824 75 63 0.0 0.0 0.00 0.00 0.00 49 1012.0
20260510000322 75 63 0.0 0.0 0.00 0.00 0.00 48 1011.8
20260509235819 75 63 0.0 0.0 0.00 0.00 0.00 48 1011.7
20260509235315 76 63 0.0 0.0 0.00 0.00 0.00 46 1011.8
20260509234811 76 63 0.0 0.0 0.00 0.00 0.00 45 1011.9
20260509234308 76 63 0.0 0.0 0.00 0.00 0.00 47 1012.0
20260509233806 76 59 0.0 0.0 0.00 0.00 0.00 46 1011.9
20260509233303 77 59 0.0 0.0 0.00 0.00 0.00 45 1011.8
20260509232759 77 59 0.0 0.0 0.00 0.00 0.00 45 1012.0
20260509232257 77 59 0.0 0.9 0.00 0.00 0.00 46 1011.8
20260509231753 77 67 0.0 0.0 0.00 0.00 0.00 43 1012.0
20260509231250 77 48 0.9 0.9 0.00 0.00 0.00 44 1011.9
20260509230748 77 55 0.0 0.0 0.00 0.00 0.00 50 1011.8
20260509230244 78 54 0.0 0.0 0.00 0.00 0.00 50 1011.8
20260509225739 78 54 0.0 0.0 0.00 0.00 0.00 42 1011.9
20260509225236 78 54 0.0 0.0 0.00 0.00 0.00 42 1011.7
20260509224731 78 54 0.0 0.0 0.00 0.00 0.00 42 1011.7
20260509224229 78 55 0.0 0.0 0.00 0.00 0.00 40 1011.8
20260509223725 79 44 0.9 1.7 0.00 0.00 0.00 46 1011.8
20260509223223 79 56 0.0 0.0 0.00 0.00 0.00 39 1011.8
20260509222719 79 73 0.0 0.0 0.00 0.00 0.00 37 1011.6
20260509222215 79 39 0.0 0.9 0.00 0.00 0.00 42 1011.7
20260509221711 79 42 0.0 0.0 0.00 0.00 0.00 38 1011.6
20260509221207 79 59 0.0 0.9 0.00 0.00 0.00 45 1011.8
20260509220703 80 37 0.0 0.0 0.00 0.00 0.00 41 1012.1
20260509220159 80 59 0.0 0.0 0.00 0.00 0.00 40 1011.9
20260509215655 80 53 0.0 0.0 0.00 0.00 0.00 36 1011.9
20260509215152 80 57 0.0 0.0 0.00 0.00 0.00 34 1012.0
20260509214649 80 74 2.6 2.6 0.00 0.00 0.00 36 1011.7
20260509214146 80 13 0.9 0.9 0.00 0.00 0.00 36 1012.1
20260509213643 80 2 0.9 1.7 0.00 0.00 0.00 37 1012.0
20260509213138 80 40 0.0 0.0 0.00 0.00 0.00 39 1012.0
20260509212636 80 32 0.0 0.0 0.00 0.00 0.00 36 1012.0
20260509212133 80 21 0.9 0.9 0.00 0.00 0.00 33 1012.2
20260509211629 80 27 0.0 0.0 0.00 0.00 0.00 35 1011.8
20260509211125 80 23 0.9 0.9 0.00 0.00 0.00 33 1012.0
20260509210623 80 226 2.6 2.6 0.00 0.00 0.00 36 1012.1
20260509210120 80 112 1.7 1.7 0.00 0.00 0.00 35 1012.0
20260509205614 80 73 0.0 0.9 0.00 0.00 0.00 37 1012.0
20260509205109 80 77 0.9 0.9 0.00 0.00 0.00 34 1012.0
20260509204605 80 72 0.9 0.9 0.00 0.00 0.00 34 1012.2
20260509204102 80 59 0.9 0.9 0.00 0.00 0.00 34 1012.2
20260509203558 81 38 0.9 0.9 0.00 0.00 0.00 36 1012.2
20260509203057 81 34 0.0 0.0 0.00 0.00 0.00 34 1012.1
20260509202556 82 78 0.9 0.9 0.00 0.00 0.00 34 1012.3
20260509202052 81 53 0.0 0.9 0.00 0.00 0.00 31 1012.4
20260509201547 81 33 0.0 0.0 0.00 0.00 0.00 34 1012.5
20260509201045 82 349 1.7 1.7 0.00 0.00 0.00 32 1012.5
20260509200544 81 52 0.0 0.0 0.00 0.00 0.00 34 1012.5
20260509200042 82 358 0.9 0.9 0.00 0.00 0.00 35 1012.6
20260509195537 82 12 0.9 0.9 0.00 0.00 0.00 35 1012.7
20260509195037 82 9 0.0 0.9 0.00 0.00 0.00 31 1012.7
20260509194532 82 34 0.0 0.9 0.00 0.00 0.00 30 1012.7
20260509194030 82 18 0.0 0.0 0.00 0.00 0.00 32 1012.9
20260509193530 83 19 0.0 0.9 0.00 0.00 0.00 35 1012.8
20260509193027 82 37 0.0 0.0 0.00 0.00 0.00 35 1012.8
20260509192524 82 16 0.0 0.0 0.00 0.00 0.00 33 1012.8
20260509192019 82 46 0.0 0.9 0.00 0.00 0.00 34 1012.8
20260509191513 83 47 0.0 0.0 0.00 0.00 0.00 32 1013.0
20260509191009 83 328 0.0 0.0 0.00 0.00 0.00 34 1012.9
20260509190506 82 49 0.9 0.9 0.00 0.00 0.00 36 1013.0
20260509190005 83 71 2.6 4.3 0.00 0.00 0.00 36 1012.9
20260509185501 82 59 0.9 0.9 0.00 0.00 0.00 36 1013.1
20260509184958 81 73 0.9 1.7 0.00 0.00 0.00 33 1013.0
20260509184456 80 94 1.7 1.7 0.00 0.00 0.00 38 1013.1
20260509183953 80 93 0.9 1.7 0.00 0.00 0.00 37 1012.9
20260509183452 80 78 0.9 0.9 0.00 0.00 0.00 36 1013.0
20260509182949 80 100 1.7 1.7 0.00 0.00 0.00 37 1013.1
20260509182445 80 85 1.7 1.7 0.00 0.00 0.00 38 1013.1
20260509181943 80 229 1.7 1.7 0.00 0.00 0.00 36 1013.0
20260509181441 83 341 0.9 1.7 0.00 0.00 0.00 35 1013.1
20260509180938 84 32 0.0 0.0 0.00 0.00 0.00 38 1013.0
20260509180434 82 34 0.9 0.9 0.00 0.00 0.00 36 1013.0
20260509175931 81 179 0.9 1.7 0.00 0.00 0.00 36 1012.9
20260509175427 82 38 0.0 0.0 0.00 0.00 0.00 32 1013.0
20260509174923 82 29 0.0 0.9 0.00 0.00 0.00 36 1013.1
20260509174419 80 87 1.7 2.6 0.00 0.00 0.00 32 1013.2
20260509173916 81 25 0.9 0.9 0.00 0.00 0.00 42 1013.3
20260509173415 80 10 0.9 1.7 0.00 0.00 0.00 40 1013.2
20260509172912 80 28 0.0 0.0 0.00 0.00 0.00 40 1013.4
20260509172409 80 32 0.0 0.0 0.00 0.00 0.00 41 1013.3
20260509171904 79 68 1.7 1.7 0.00 0.00 0.00 38 1013.5
20260509171401 79 53 0.9 0.9 0.00 0.00 0.00 43 1013.5
20260509170857 78 69 0.9 0.9 0.00 0.00 0.00 42 1013.5
20260509170353 78 170 2.6 2.6 0.00 0.00 0.00 43 1013.6
20260509165848 78 24 0.0 0.0 0.00 0.00 0.00 47 1013.5
20260509165342 78 25 0.0 0.0 0.00 0.00 0.00 45 1013.7
20260509164839 77 30 0.9 0.9 0.00 0.00 0.00 50 1013.7
20260509164335 78 54 0.0 0.0 0.00 0.00 0.00 51 1013.5
20260509163831 77 339 0.9 0.9 0.00 0.00 0.00 59 1013.7
20260509163328 76 61 0.0 0.9 0.00 0.00 0.00 57 1013.6
20260509162828 75 57 0.0 0.0 0.00 0.00 0.00 56 1013.7
20260509162326 77 62 0.9 0.9 0.00 0.00 0.00 55 1013.6
20260509161822 77 14 0.9 1.7 0.00 0.00 0.00 57 1013.6
20260509161319 77 66 0.9 0.9 0.00 0.00 0.00 57 1013.5
20260509160814 75 24 0.9 0.9 0.00 0.00 0.00 58 1013.5
20260509160310 74 22 0.0 0.9 0.00 0.00 0.00 60 1013.5
20260509155806 73 61 0.9 0.9 0.00 0.00 0.00 61 1013.3
20260509155306 75 97 0.9 1.7 0.00 0.00 0.00 62 1013.6
20260509154759 74 166 2.6 2.6 0.00 0.00 0.00 63 1013.5
20260509154256 74 62 0.0 0.0 0.00 0.00 0.00 64 1013.7
20260509153753 73 31 0.9 0.9 0.00 0.00 0.00 66 1013.8
20260509153248 73 31 0.9 0.9 0.00 0.00 0.00 66 1013.5
20260509152746 72 77 1.7 1.7 0.00 0.00 0.00 69 1013.6
20260509152242 71 75 0.9 0.9 0.00 0.00 0.00 67 1013.7
20260509151739 71 358 0.9 1.7 0.00 0.00 0.00 69 1013.3
20260509151235 71 53 0.0 0.0 0.00 0.00 0.00 69 1013.6
20260509150734 70 56 0.0 0.0 0.00 0.00 0.00 70 1013.4
20260509150232 69 332 0.9 1.7 0.00 0.00 0.00 72 1013.5
20260509145729 70 81 0.9 0.9 0.00 0.00 0.00 72 1013.6
20260509145228 70 29 0.9 0.9 0.00 0.00 0.00 73 1013.3
20260509144725 69 10 0.9 0.9 0.00 0.00 0.00 72 1013.5
20260509144222 68 61 0.0 0.0 0.00 0.00 0.00 74 1013.2
20260509143719 69 24 0.9 1.7 0.00 0.00 0.00 73 1013.2
20260509143217 68 63 0.9 0.9 0.00 0.00 0.00 74 1013.0
20260509142712 68 332 0.9 1.7 0.00 0.00 0.00 75 1013.3
20260509142209 68 348 1.7 1.7 0.00 0.00 0.00 77 1013.4
20260509141704 66 37 0.0 0.0 0.00 0.00 0.00 79 1013.2
20260509141202 65 42 0.9 0.9 0.00 0.00 0.00 80 1013.3
20260509140658 65 117 0.9 1.7 0.00 0.00 0.00 81 1013.3
20260509140156 64 71 0.9 0.9 0.00 0.00 0.00 81 1013.1
20260509135653 63 94 0.9 0.9 0.00 0.00 0.00 82 1013.1
20260509135151 63 70 0.9 0.9 0.00 0.00 0.00 83 1013.1
20260509134647 63 63 0.0 0.0 0.00 0.00 0.00 84 1013.0
20260509134145 62 278 1.7 1.7 0.00 0.00 0.00 84 1013.0
20260509133642 62 355 0.9 0.9 0.00 0.00 0.00 85 1013.0
20260509133139 61 16 0.9 0.9 0.00 0.00 0.00 86 1012.8
20260509132637 61 5 0.9 0.9 0.00 0.00 0.00 87 1013.1
20260509132136 60 7 0.0 0.9 0.00 0.00 0.00 87 1013.0
20260509131631 60 16 0.9 0.9 0.00 0.00 0.00 87 1012.9
20260509131128 59 16 0.9 0.9 0.00 0.00 0.00 88 1012.9
20260509130624 59 54 0.9 0.9 0.00 0.00 0.00 89 1013.0
20260509130121 58 47 0.9 0.9 0.00 0.00 0.00 89 1012.8
20260509125617 58 14 0.0 0.0 0.00 0.00 0.00 90 1012.8
20260509125114 57 14 0.0 0.0 0.00 0.00 0.00 91 1012.8
20260509124611 57 17 0.0 0.0 0.00 0.00 0.00 92 1012.8
20260509124108 56 18 0.0 0.0 0.00 0.00 0.00 92 1012.6
20260509123606 56 18 0.0 0.0 0.00 0.00 0.00 92 1012.7
20260509123102 56 21 0.0 0.0 0.00 0.00 0.00 93 1012.6
20260509122558 56 18 0.0 0.0 0.00 0.00 0.00 93 1012.8
20260509122055 55 20 0.0 0.0 0.00 0.00 0.00 94 1012.6
20260509121552 55 18 0.0 0.0 0.00 0.00 0.00 94 1012.4
20260509121049 55 21 0.0 0.0 0.00 0.00 0.00 95 1012.6
20260509120548 55 352 0.0 0.0 0.00 0.00 0.00 95 1012.4
20260509120046 54 9 0.0 0.0 0.00 0.00 0.00 95 1012.4
20260509115542 54 10 0.0 0.0 0.00 0.00 0.00 96 1012.2
20260509115040 54 10 0.0 0.0 0.00 0.00 0.00 96 1012.3
20260509114538 54 10 0.0 0.0 0.00 0.00 0.00 96 1012.0
20260509114037 54 10 0.0 0.0 0.00 0.00 0.00 96 1012.1
20260509113535 54 10 0.0 0.0 0.00 0.00 0.00 95 1012.0
20260509113032 54 10 0.0 0.0 0.00 0.00 0.00 95 1012.1
20260509112528 54 10 0.0 0.0 0.00 0.00 0.00 95 1012.0
20260509112025 54 10 0.0 0.0 0.00 0.00 0.00 95 1011.8
20260509111522 54 10 0.0 0.0 0.00 0.00 0.00 94 1011.7
20260509111020 54 10 0.0 0.0 0.00 0.00 0.00 94 1011.7
20260509110516 55 10 0.0 0.0 0.00 0.00 0.00 94 1011.7
20260509110013 55 10 0.0 0.0 0.00 0.00 0.00 93 1011.4
20260509105512 55 10 0.0 0.0 0.00 0.00 0.00 93 1011.5